Location: Casteau
(50.5142°N, 4.0161°E)
Time: 06:08:45
(UTC+00:00)

Vanguard 1 Rocket - Pass Details

Date: 31 July 2021
Orbit: 650 x 4226 km, 34.3° (Epoch: 21 September)

Event Time Altitude Azimuth Distance (km) Brightness Sun altitude
Rises 10:25:50 0° 233° (SW) 7,773 12.2 53.5°
Reaches altitude 10° 10:32:31 10° 226° (SW) 6,230 11.9 54.1°
Maximum altitude 10:46:45 32° 173° (S) 3,290 11.6 55.2°
Drops below altitude 10° 10:55:10 10° 115° (ESE) 3,659 11.0 55.8°
Sets 10:57:55 0° 104° (ESE) 4,278 11.1 56.0°
